Weather History for Morrisville, VT

Change the Weather History Date:

Monday, January 13, 2014

  Actual Average Record
Temperature  
Mean Temperature 36 °F 16 °F  
Max Temperature 45 °F 26 °F 47 °F (2013)
Min Temperature 27 °F 5 °F -20 °F (1999)
Degree Days  
Heating Degree Days 29 49  
Month to date heating degree days 643 629  
Since 1 July heating degree days 3787 3767  
Cooling Degree Days 0 0  
Month to date cooling degree days 0 0  
Year to date cooling degree days 0 0  
Moisture  
Dew Point 24 °F    
Average Humidity 60    
Maximum Humidity 75    
Minimum Humidity 45    
Precipitation  
Precipitation 0.00 in 0.08 in 0.36 in (1950)
Month to date precipitation 1.66 1.20  
Year to date precipitation 1.66 1.20  
Sea Level Pressure  
Sea Level Pressure 29.91 in    
Wind  
Wind Speed 2 mph (South)    
Max Wind Speed 10 mph    
Max Gust Speed 15 mph    
Visibility 10 miles    
Events      
T = Trace of Precipitation, MM = Missing Value Source: NWS Daily Summary

Daily Weather History Graph

Daily Weather History Graph

Search for Another Location

Airport:

Trip Planner

Search our weather history database for the weather conditions in past years. The results will help you decide how hot, cold, wet, or windy it might be!

Date:

Astronomy

Jan. 13, 2014 Rise Set
Actual Time 7:24 AM EST 4:34 PM EST
Civil Twilight 6:52 AM EST 5:06 PM EST
Nautical Twilight 6:15 AM EST 5:42 PM EST
Astronomical Twilight 5:40 AM EST 6:17 PM EST
Moon 2:47 PM EST (1/13) 5:10 AM EST (1/13)
Length of Visible Light 10h 14m
Length of Day
9h 09m
Waxing Gibbous, 95% of the Moon is Illuminated
Jan 13
Waxing Gibbous
Jan 15
Full
Jan 24
Last Quarter
Jan 30
New
Feb 6
First Quarter

Hourly Weather History & Observations

Time (EST) Temp. Windchill Dew Point Humidity Pressure Visibility Wind Dir Wind Speed Gust Speed Precip Events Conditions
12:54 AM 35.1 °F 29.3 °F 21.9 °F 59% 29.95 in 10.0 mi SSW 6.9 mph - N/A   Overcast
1:54 AM 35.1 °F 30.1 °F 21.9 °F 59% 29.98 in 10.0 mi South 5.8 mph - N/A   Overcast
2:54 AM 34.0 °F 29.8 °F 21.9 °F 61% 30.00 in 10.0 mi SSW 4.6 mph - N/A   Clear
3:54 AM 28.9 °F - 21.9 °F 75% 30.01 in 10.0 mi Calm Calm - N/A   Clear
4:54 AM 30.0 °F - 23.0 °F 75% 30.00 in 10.0 mi Calm Calm - N/A   Clear
5:54 AM 28.0 °F - 21.9 °F 78% 29.99 in 10.0 mi Calm Calm - N/A   Clear
6:54 AM 32.0 °F 26.4 °F 23.0 °F 69% 29.99 in 10.0 mi SW 5.8 mph - N/A   Clear
7:54 AM 30.0 °F 26.5 °F 23.0 °F 75% 30.00 in 10.0 mi South 3.5 mph - N/A   Clear
8:54 AM 32.0 °F 26.4 °F 23.0 °F 69% 30.00 in 10.0 mi SSE 5.8 mph - N/A   Scattered Clouds
9:54 AM 35.1 °F 30.1 °F 24.1 °F 64% 29.98 in 10.0 mi SSE 5.8 mph - N/A   Clear
10:54 AM 37.9 °F - 23.0 °F 55% 29.96 in 10.0 mi Calm Calm - N/A   Clear
11:54 AM 39.0 °F 36.8 °F 24.1 °F 55% 29.91 in 10.0 mi SSE 3.5 mph - N/A   Clear
12:54 PM 41.0 °F - 23.0 °F 49% 29.88 in 10.0 mi Calm Calm - N/A   Clear
1:54 PM 42.1 °F - 25.0 °F 51% 29.86 in 10.0 mi Calm Calm - N/A   Clear
2:54 PM 45.0 °F 43.5 °F 24.1 °F 44% 29.84 in 10.0 mi ESE 3.5 mph - N/A   Clear
3:54 PM 43.0 °F - 23.0 °F 45% 29.86 in 10.0 mi Calm Calm - N/A   Clear
4:54 PM 41.0 °F - 24.1 °F 51% 29.85 in 10.0 mi Calm Calm - N/A   Clear
5:54 PM 41.0 °F 38.0 °F 23.0 °F 49% 29.84 in 10.0 mi South 4.6 mph - N/A   Clear
6:54 PM 39.9 °F - 25.0 °F 55% 29.84 in 10.0 mi Calm Calm - N/A   Clear
7:54 PM 39.0 °F - 26.1 °F 60% 29.82 in 10.0 mi Calm Calm - N/A   Clear
8:54 PM 37.9 °F - 27.0 °F 65% 29.81 in 10.0 mi Calm Calm - N/A   Clear
9:54 PM 36.0 °F - 28.0 °F 73% 29.81 in 10.0 mi Calm Calm - N/A   Clear
10:54 PM 35.1 °F - 28.9 °F 78% 29.79 in 10.0 mi Calm Calm - N/A   Mostly Cloudy
11:54 PM 35.1 °F - 28.9 °F 78% 29.77 in 10.0 mi Calm Calm - N/A   Overcast